This is the latest recevied weather packets stored in our database for station/object NK7E-2. If no packets are shown the sender has not sent any weather packets the latest 10 day(s).
| Time | Temp. | Humidity | Pressure | Rain* | Wind** | Luminosity | Snow |
|---|---|---|---|---|---|---|---|
| 1788276025 | 23.33° C | 73% | 1027.7 hPa | 0 mm | - | - | - |
| 1788275416 | 23.89° C | 67% | 1027.9 hPa | 0 mm | - | - | - |
| 1788274816 | 23.33° C | 70% | 1027.9 hPa | 0 mm | - | - | - |
| 1788274233 | 22.78° C | 73% | 1027.8 hPa | 0 mm | - | - | - |
| 1788273616 | 21.67° C | 76% | 1027.5 hPa | 0 mm | - | - | - |
| 1788273016 | 21.67° C | 76% | 1027.6 hPa | 0 mm | - | - | - |
| 1788272416 | 21.11° C | 76% | 1027.4 hPa | 0 mm | - | - | - |
| 1788271816 | 20.56° C | 79% | 1027.1 hPa | 0 mm | - | - | - |
| 1788271216 | 19.44° C | 84% | 1027.1 hPa | 0 mm | - | - | - |
| 1788270616 | 18.33° C | 87% | 1026.8 hPa | 0 mm | - | - | - |
| 1788270016 | 17.78° C | 88% | 1026.6 hPa | 0 mm | - | - | - |
| 1788269416 | 17.78° C | 87% | 1026.3 hPa | 0 mm | - | - | - |
| 1788268816 | 17.78° C | 88% | 1026 hPa | 0 mm | - | - | - |
| 1788268216 | 17.78° C | 86% | 1025.7 hPa | 0 mm | - | - | - |
| 1788267616 | 17.78° C | 87% | 1025.5 hPa | 0 mm | - | - | - |
| 1788267016 | 17.78° C | 86% | 1025.5 hPa | 0 mm | - | - | - |
| 1788266416 | 18.33° C | 85% | 1025.4 hPa | 0 mm | - | - | - |
| 1788265816 | 18.33° C | 84% | 1025.3 hPa | 0 mm | - | - | - |
| 1788265216 | 18.33° C | 84% | 1025.2 hPa | 0 mm | - | - | - |
| 1788264616 | 17.78° C | 87% | 1025.1 hPa | 0 mm | - | - | - |
| 1788264026 | 17.78° C | 88% | 1025.2 hPa | 0 mm | - | - | - |
| 1788263416 | 17.78° C | 89% | 1025.3 hPa | 0 mm | - | - | - |
| 1788262816 | 17.78° C | 89% | 1025 hPa | 0 mm | - | - | - |
| 1788262220 | 17.78° C | 89% | 1025 hPa | 0 mm | - | - | - |
| 1788261616 | 17.78° C | 89% | 1025 hPa | 0 mm | - | - | - |
* Rain latest hour (hover to see other rain measurements)
** Current wind speed in m/s (hover to see current wind gust speed)